Time,TemperatureF,DewpointF,PressureIn,WindDirection,WindDirectionDegrees,WindSpeedMPH,WindSpeedGustMPH,Humidity,HourlyPrecipIn,Conditions,Clouds,dailyrainin,SoftwareType,DateUTC
2013-07-16 00:00:00,66.2,63.2,30.26,SSE,157,0.0,-999.0,89,-99.99,,,-99.99,MetarLogicWeatherSta,2013-07-16 04:00:00,
2013-07-16 00:01:00,66.2,63.2,30.26,SSE,157,0.0,-999.0,89,-99.99,,,-99.99,MetarLogicWeatherSta,2013-07-16 04:01:00,
2013-07-16 00:06:00,66.2,63.3,30.26,SSE,157,0.0,-999.0,90,-99.99,,,-99.99,MetarLogicWeatherSta,2013-07-16 04:06:00,
2013-07-16 00:11:00,66.1,63.0,30.26,SSE,157,0.0,-999.0,89,-99.99,,,-99.99,MetarLogicWeatherSta,2013-07-16 04:11:00,
2013-07-16 00:16:00,65.9,62.9,30.26,SSE,157,0.0,-999.0,89,-99.99,,,-99.99,MetarLogicWeatherSta,2013-07-16 04:16:00,
2013-07-16 00:21:00,65.8,62.9,30.26,SSE,157,0.0,-999.0,90,-99.99,,,-99.99,MetarLogicWeatherSta,2013-07-16 04:21:00,
2013-07-16 00:26:00,65.8,63.0,30.26,SSE,157,0.0,-999.0,90,-99.99,,,-99.99,MetarLogicWeatherSta,2013-07-16 04:26:00,
2013-07-16 00:31:00,65.8,63.0,30.26,SSE,157,0.0,-999.0,90,-99.99,,,-99.99,MetarLogicWeatherSta,2013-07-16 04:31:00,
2013-07-16 00:36:00,65.5,62.9,30.26,SSE,157,0.0,-999.0,91,-99.99,,,-99.99,MetarLogicWeatherSta,2013-07-16 04:36:00,
2013-07-16 00:41:00,65.5,62.8,30.27,SSE,157,0.0,-999.0,91,-99.99,,,-99.99,MetarLogicWeatherSta,2013-07-16 04:41:00,
2013-07-16 00:46:00,65.2,62.7,30.26,SSE,157,0.0,-999.0,91,-99.99,,,-99.99,MetarLogicWeatherSta,2013-07-16 04:46:00,
2013-07-16 00:51:00,65.1,62.8,30.27,SSE,157,0.0,-999.0,92,-99.99,,,-99.99,MetarLogicWeatherSta,2013-07-16 04:51:00,
2013-07-16 00:56:00,65.0,62.6,30.26,South,180,0.0,-999.0,91,-99.99,,,-99.99,MetarLogicWeatherSta,2013-07-16 04:56:00,
2013-07-16 01:01:00,65.4,62.9,30.26,SSE,157,0.0,-999.0,91,-99.99,,,-99.99,MetarLogicWeatherSta,2013-07-16 05:01:00,
2013-07-16 01:06:00,65.0,62.7,30.26,SSE,157,0.0,-999.0,92,-99.99,,,-99.99,MetarLogicWeatherSta,2013-07-16 05:06:00,
2013-07-16 01:11:00,65.0,62.8,30.26,SSE,157,0.0,-999.0,92,-99.99,,,-99.99,MetarLogicWeatherSta,2013-07-16 05:11:00,
2013-07-16 01:16:00,65.1,62.8,30.26,SSE,157,0.0,-999.0,92,-99.99,,,-99.99,MetarLogicWeatherSta,2013-07-16 05:16:00,
2013-07-16 01:21:00,65.1,63.1,30.26,South,180,0.0,-999.0,93,-99.99,,,-99.99,MetarLogicWeatherSta,2013-07-16 05:21:00,
2013-07-16 01:26:00,64.9,62.9,30.26,SSE,157,0.0,-999.0,93,-99.99,,,-99.99,MetarLogicWeatherSta,2013-07-16 05:26:00,
2013-07-16 01:31:00,65.0,62.7,30.26,SSE,157,0.0,-999.0,92,-99.99,,,-99.99,MetarLogicWeatherSta,2013-07-16 05:31:00,
2013-07-16 01:36:00,64.8,62.7,30.26,SSE,157,0.0,-999.0,92,-99.99,,,-99.99,MetarLogicWeatherSta,2013-07-16 05:36:00,
2013-07-16 01:41:00,64.7,62.7,30.26,SSE,157,0.0,-999.0,93,-99.99,,,-99.99,MetarLogicWeatherSta,2013-07-16 05:41:00,
2013-07-16 01:46:00,64.7,62.8,30.26,SSE,157,0.0,-999.0,93,-99.99,,,-99.99,MetarLogicWeatherSta,2013-07-16 05:46:00,
2013-07-16 01:51:00,64.8,63.0,30.26,SSE,157,0.0,-999.0,93,-99.99,,,-99.99,MetarLogicWeatherSta,2013-07-16 05:51:00,
2013-07-16 01:56:00,64.8,63.0,30.27,SSE,157,0.0,-999.0,93,-99.99,,,-99.99,MetarLogicWeatherSta,2013-07-16 05:56:00,
2013-07-16 02:01:00,64.7,62.9,30.27,SSE,157,0.0,-999.0,93,-99.99,,,-99.99,MetarLogicWeatherSta,2013-07-16 06:01:00,
2013-07-16 02:06:00,64.7,62.8,30.26,SSE,157,0.0,-999.0,93,-99.99,,,-99.99,MetarLogicWeatherSta,2013-07-16 06:06:00,
2013-07-16 02:11:00,64.7,62.9,30.27,SSE,157,0.0,-999.0,93,-99.99,,,-99.99,MetarLogicWeatherSta,2013-07-16 06:11:00,
2013-07-16 02:16:00,64.6,62.9,30.26,SSE,157,0.0,-999.0,94,-99.99,,,-99.99,MetarLogicWeatherSta,2013-07-16 06:16:00,
2013-07-16 02:21:00,64.6,62.8,30.27,SSE,157,0.0,-999.0,93,-99.99,,,-99.99,MetarLogicWeatherSta,2013-07-16 06:21:00,
2013-07-16 02:26:00,64.5,62.9,30.27,SSE,157,0.0,-999.0,94,-99.99,,,-99.99,MetarLogicWeatherSta,2013-07-16 06:26:00,
2013-07-16 02:31:00,64.2,62.4,30.28,SSE,157,0.0,-999.0,93,-99.99,,,-99.99,MetarLogicWeatherSta,2013-07-16 06:31:00,
2013-07-16 02:36:00,64.2,62.6,30.27,SSE,157,0.0,-999.0,94,-99.99,,,-99.99,MetarLogicWeatherSta,2013-07-16 06:36:00,
2013-07-16 02:41:00,64.2,62.6,30.27,SSE,157,0.0,-999.0,94,-99.99,,,-99.99,MetarLogicWeatherSta,2013-07-16 06:41:00,
2013-07-16 02:46:00,64.2,62.4,30.27,SSE,157,0.0,-999.0,93,-99.99,,,-99.99,MetarLogicWeatherSta,2013-07-16 06:46:00,
2013-07-16 02:51:00,64.2,62.4,30.27,SSE,157,0.0,-999.0,93,-99.99,,,-99.99,MetarLogicWeatherSta,2013-07-16 06:51:00,
2013-07-16 02:56:00,64.2,62.5,30.27,SSE,157,0.0,-999.0,93,-99.99,,,-99.99,MetarLogicWeatherSta,2013-07-16 06:56:00,
2013-07-16 03:01:00,63.9,62.4,30.27,SSE,157,0.0,-999.0,94,-99.99,,,-99.99,MetarLogicWeatherSta,2013-07-16 07:01:00,
2013-07-16 03:06:00,64.1,62.6,30.27,SSE,157,0.0,-999.0,94,-99.99,,,-99.99,MetarLogicWeatherSta,2013-07-16 07:06:00,
2013-07-16 03:11:00,63.9,62.4,30.27,SSE,157,0.0,-999.0,94,-99.99,,,-99.99,MetarLogicWeatherSta,2013-07-16 07:11:00,
2013-07-16 03:16:00,63.9,62.4,30.27,SSE,157,0.0,-999.0,94,-99.99,,,-99.99,MetarLogicWeatherSta,2013-07-16 07:16:00,
2013-07-16 03:23:00,63.9,62.4,30.27,SSE,157,0.0,-999.0,94,-99.99,,,-99.99,MetarLogicWeatherSta,2013-07-16 07:23:00,
2013-07-16 03:28:00,63.7,62.3,30.27,SSE,157,0.0,-999.0,95,-99.99,,,-99.99,MetarLogicWeatherSta,2013-07-16 07:28:00,
2013-07-16 03:33:00,63.7,62.2,30.27,SSE,157,0.0,-999.0,94,-99.99,,,-99.99,MetarLogicWeatherSta,2013-07-16 07:33:00,
2013-07-16 03:40:00,63.4,62.2,30.28,SSE,157,0.0,-999.0,95,-99.99,,,-99.99,MetarLogicWeatherSta,2013-07-16 07:40:00,
2013-07-16 03:46:00,63.7,62.3,30.27,SSE,157,0.0,-999.0,95,-99.99,,,-99.99,MetarLogicWeatherSta,2013-07-16 07:46:00,
2013-07-16 03:51:00,63.6,62.3,30.28,SSE,157,0.0,-999.0,95,-99.99,,,-99.99,MetarLogicWeatherSta,2013-07-16 07:51:00,
2013-07-16 03:56:00,63.7,62.5,30.28,SSE,157,0.0,-999.0,95,-99.99,,,-99.99,MetarLogicWeatherSta,2013-07-16 07:56:00,
2013-07-16 04:01:00,63.7,62.4,30.28,SSE,157,0.0,-999.0,95,-99.99,,,-99.99,MetarLogicWeatherSta,2013-07-16 08:01:00,
2013-07-16 04:06:00,63.7,62.6,30.27,SSE,157,0.0,-999.0,95,-99.99,,,-99.99,MetarLogicWeatherSta,2013-07-16 08:06:00,
2013-07-16 04:11:00,63.9,62.8,30.28,SSE,157,0.0,-999.0,96,-99.99,,,-99.99,MetarLogicWeatherSta,2013-07-16 08:11:00,
2013-07-16 04:16:00,63.9,62.8,30.28,SSE,157,0.0,-999.0,96,-99.99,,,-99.99,MetarLogicWeatherSta,2013-07-16 08:16:00,
2013-07-16 04:21:00,64.2,63.0,30.28,SSE,157,0.0,-999.0,96,-99.99,,,-99.99,MetarLogicWeatherSta,2013-07-16 08:21:00,
2013-07-16 04:26:00,63.8,62.6,30.27,SSE,157,0.0,-999.0,95,-99.99,,,-99.99,MetarLogicWeatherSta,2013-07-16 08:26:00,
2013-07-16 04:31:00,63.8,62.7,30.27,SSE,157,0.0,-999.0,96,-99.99,,,-99.99,MetarLogicWeatherSta,2013-07-16 08:31:00,
2013-07-16 04:36:00,63.6,62.4,30.27,SSE,157,0.0,-999.0,96,-99.99,,,-99.99,MetarLogicWeatherSta,2013-07-16 08:36:00,
2013-07-16 04:41:00,63.8,62.7,30.27,SSE,157,0.0,-999.0,95,-99.99,,,-99.99,MetarLogicWeatherSta,2013-07-16 08:41:00,
2013-07-16 04:48:00,63.7,62.5,30.27,SSE,157,0.0,-999.0,96,-99.99,,,-99.99,MetarLogicWeatherSta,2013-07-16 08:48:00,
2013-07-16 04:53:00,63.6,62.5,30.27,SSE,157,0.0,-999.0,96,-99.99,,,-99.99,MetarLogicWeatherSta,2013-07-16 08:53:00,
2013-07-16 04:58:00,63.7,62.7,30.27,SSE,157,0.0,-999.0,96,-99.99,,,-99.99,MetarLogicWeatherSta,2013-07-16 08:58:00,
2013-07-16 05:03:00,63.8,62.8,30.28,SSE,157,0.0,-999.0,96,-99.99,,,-99.99,MetarLogicWeatherSta,2013-07-16 09:03:00,
2013-07-16 05:08:00,63.8,62.7,30.27,SSE,157,0.0,-999.0,96,-99.99,,,-99.99,MetarLogicWeatherSta,2013-07-16 09:08:00,
2013-07-16 05:13:00,63.8,62.8,30.28,SSE,157,0.0,-999.0,96,-99.99,,,-99.99,MetarLogicWeatherSta,2013-07-16 09:13:00,
2013-07-16 05:18:00,63.7,62.7,30.28,SSE,157,0.0,-999.0,96,-99.99,,,-99.99,MetarLogicWeatherSta,2013-07-16 09:18:00,
2013-07-16 05:23:00,63.7,62.7,30.28,SSE,157,0.0,-999.0,96,-99.99,,,-99.99,MetarLogicWeatherSta,2013-07-16 09:23:00,
2013-07-16 05:28:00,63.9,62.8,30.28,SSE,157,0.0,-999.0,96,-99.99,,,-99.99,MetarLogicWeatherSta,2013-07-16 09:28:00,
2013-07-16 05:33:00,63.9,62.9,30.28,SSE,157,0.0,-999.0,96,-99.99,,,-99.99,MetarLogicWeatherSta,2013-07-16 09:33:00,
2013-07-16 05:38:00,63.7,62.7,30.29,SSE,157,0.0,-999.0,96,-99.99,,,-99.99,MetarLogicWeatherSta,2013-07-16 09:38:00,
2013-07-16 05:43:00,63.7,62.7,30.29,SSE,157,0.0,-999.0,96,-99.99,,,-99.99,MetarLogicWeatherSta,2013-07-16 09:43:00,
2013-07-16 05:48:00,63.5,62.5,30.29,SSE,157,0.0,-999.0,96,-99.99,,,-99.99,MetarLogicWeatherSta,2013-07-16 09:48:00,
2013-07-16 05:53:00,63.5,62.5,30.29,SSE,157,0.0,-999.0,96,-99.99,,,-99.99,MetarLogicWeatherSta,2013-07-16 09:53:00,
2013-07-16 05:58:00,63.7,62.8,30.29,SSE,157,0.0,-999.0,97,-99.99,,,-99.99,MetarLogicWeatherSta,2013-07-16 09:58:00,
2013-07-16 06:03:00,63.8,62.8,30.29,SSE,157,0.0,-999.0,96,-99.99,,,-99.99,MetarLogicWeatherSta,2013-07-16 10:03:00,
2013-07-16 06:08:00,63.6,62.8,30.29,SSE,157,0.0,-999.0,97,-99.99,,,-99.99,MetarLogicWeatherSta,2013-07-16 10:08:00,
2013-07-16 06:13:00,63.8,63.0,30.29,South,180,0.0,-999.0,97,-99.99,,,-99.99,MetarLogicWeatherSta,2013-07-16 10:13:00,
2013-07-16 06:18:00,63.8,63.0,30.29,SSE,157,0.0,-999.0,97,-99.99,,,-99.99,MetarLogicWeatherSta,2013-07-16 10:18:00,
2013-07-16 06:23:00,63.7,62.9,30.30,SSE,157,0.0,-999.0,97,-99.99,,,-99.99,MetarLogicWeatherSta,2013-07-16 10:23:00,
2013-07-16 06:28:00,63.7,63.1,30.30,SSE,157,0.0,-999.0,97,-99.99,,,-99.99,MetarLogicWeatherSta,2013-07-16 10:28:00,
2013-07-16 06:33:00,64.2,63.5,30.30,South,180,0.0,-999.0,97,-99.99,,,-99.99,MetarLogicWeatherSta,2013-07-16 10:33:00,
2013-07-16 06:38:00,64.3,63.4,30.30,SSE,157,0.0,-999.0,96,-99.99,,,-99.99,MetarLogicWeatherSta,2013-07-16 10:38:00,
2013-07-16 06:43:00,64.3,63.6,30.29,South,180,0.0,-999.0,97,-99.99,,,-99.99,MetarLogicWeatherSta,2013-07-16 10:43:00,
2013-07-16 06:48:00,64.6,64.0,30.30,SSE,157,0.0,-999.0,97,-99.99,,,-99.99,MetarLogicWeatherSta,2013-07-16 10:48:00,
2013-07-16 06:53:00,64.8,64.2,30.30,SE,135,0.0,-999.0,97,-99.99,,,-99.99,MetarLogicWeatherSta,2013-07-16 10:53:00,
2013-07-16 06:58:00,65.4,64.9,30.30,SSE,157,0.0,-999.0,98,-99.99,,,-99.99,MetarLogicWeatherSta,2013-07-16 10:58:00,
2013-07-16 07:03:00,65.7,65.0,30.30,SSE,157,0.0,-999.0,97,-99.99,,,-99.99,MetarLogicWeatherSta,2013-07-16 11:03:00,
2013-07-16 07:08:00,65.8,65.2,30.30,South,180,0.0,-999.0,97,-99.99,,,-99.99,MetarLogicWeatherSta,2013-07-16 11:08:00,
2013-07-16 07:13:00,66.3,65.7,30.30,South,180,0.0,-999.0,98,-99.99,,,-99.99,MetarLogicWeatherSta,2013-07-16 11:13:00,
2013-07-16 07:18:00,66.4,65.9,30.30,SSE,157,0.0,-999.0,98,-99.99,,,-99.99,MetarLogicWeatherSta,2013-07-16 11:18:00,
2013-07-16 07:23:00,66.6,65.9,30.30,South,180,0.0,-999.0,97,-99.99,,,-99.99,MetarLogicWeatherSta,2013-07-16 11:23:00,
2013-07-16 07:28:00,67.0,66.6,30.30,South,180,0.0,-999.0,98,-99.99,,,-99.99,MetarLogicWeatherSta,2013-07-16 11:28:00,
2013-07-16 07:33:00,67.4,66.8,30.30,South,180,0.0,-999.0,97,-99.99,,,-99.99,MetarLogicWeatherSta,2013-07-16 11:33:00,
2013-07-16 07:38:00,67.8,67.3,30.30,South,180,0.0,-999.0,98,-99.99,,,-99.99,MetarLogicWeatherSta,2013-07-16 11:38:00,
2013-07-16 07:43:00,67.9,67.5,30.30,South,180,0.0,-999.0,98,-99.99,,,-99.99,MetarLogicWeatherSta,2013-07-16 11:43:00,
2013-07-16 07:48:00,68.4,67.9,30.30,South,180,0.0,-999.0,98,-99.99,,,-99.99,MetarLogicWeatherSta,2013-07-16 11:48:00,
2013-07-16 07:53:00,69.1,68.6,30.30,South,180,0.0,-999.0,98,-99.99,,,-99.99,MetarLogicWeatherSta,2013-07-16 11:53:00,
2013-07-16 07:58:00,69.6,69.1,30.30,South,180,0.0,-999.0,98,-99.99,,,-99.99,MetarLogicWeatherSta,2013-07-16 11:58:00,
2013-07-16 08:03:00,69.9,69.3,30.30,South,180,0.0,-999.0,98,-99.99,,,-99.99,MetarLogicWeatherSta,2013-07-16 12:03:00,
2013-07-16 08:11:00,70.1,69.8,30.30,South,180,0.0,-999.0,98,-99.99,,,-99.99,MetarLogicWeatherSta,2013-07-16 12:11:00,
2013-07-16 08:16:00,70.7,70.1,30.30,South,180,0.0,-999.0,97,-99.99,,,-99.99,MetarLogicWeatherSta,2013-07-16 12:16:00,
2013-07-16 08:21:00,71.2,70.4,30.30,South,180,0.0,-999.0,97,-99.99,,,-99.99,MetarLogicWeatherSta,2013-07-16 12:21:00,
2013-07-16 08:26:00,71.7,71.0,30.30,South,180,0.0,-999.0,97,-99.99,,,-99.99,MetarLogicWeatherSta,2013-07-16 12:26:00,
2013-07-16 08:31:00,72.7,72.0,30.30,SSE,157,0.0,-999.0,97,-99.99,,,-99.99,MetarLogicWeatherSta,2013-07-16 12:31:00,
2013-07-16 08:36:00,73.6,72.6,30.30,South,180,0.0,-999.0,96,-99.99,,,-99.99,MetarLogicWeatherSta,2013-07-16 12:36:00,
2013-07-16 08:41:00,74.6,73.3,30.30,South,180,0.0,-999.0,95,-99.99,,,-99.99,MetarLogicWeatherSta,2013-07-16 12:41:00,
2013-07-16 08:46:00,75.4,74.0,30.30,South,180,0.0,-999.0,95,-99.99,,,-99.99,MetarLogicWeatherSta,2013-07-16 12:46:00,
2013-07-16 08:53:00,75.9,74.4,30.30,South,180,0.0,-999.0,94,-99.99,,,-99.99,MetarLogicWeatherSta,2013-07-16 12:53:00,
2013-07-16 08:58:00,77.7,74.8,30.30,South,180,0.0,-999.0,90,-99.99,,,-99.99,MetarLogicWeatherSta,2013-07-16 12:58:00,
2013-07-16 09:03:00,78.4,74.5,30.30,South,180,0.0,-999.0,87,-99.99,,,-99.99,MetarLogicWeatherSta,2013-07-16 13:03:00,
2013-07-16 09:08:00,79.0,74.9,30.30,South,180,0.0,-999.0,87,-99.99,,,-99.99,MetarLogicWeatherSta,2013-07-16 13:08:00,
2013-07-16 09:13:00,79.6,74.6,30.30,South,180,0.0,-999.0,84,-99.99,,,-99.99,MetarLogicWeatherSta,2013-07-16 13:13:00,
2013-07-16 09:18:00,80.1,74.2,30.30,SSE,157,0.0,-999.0,81,-99.99,,,-99.99,MetarLogicWeatherSta,2013-07-16 13:18:00,
2013-07-16 09:23:00,80.7,74.1,30.30,South,180,0.0,-999.0,80,-99.99,,,-99.99,MetarLogicWeatherSta,2013-07-16 13:23:00,
2013-07-16 09:28:00,81.0,74.1,30.30,South,180,0.0,-999.0,79,-99.99,,,-99.99,MetarLogicWeatherSta,2013-07-16 13:28:00,
2013-07-16 09:33:00,81.2,73.9,30.30,South,180,0.0,-999.0,78,-99.99,,,-99.99,MetarLogicWeatherSta,2013-07-16 13:33:00,
2013-07-16 09:38:00,81.3,73.9,30.30,South,180,0.0,-999.0,77,-99.99,,,-99.99,MetarLogicWeatherSta,2013-07-16 13:38:00,
2013-07-16 09:43:00,81.4,73.7,30.30,South,180,0.0,-999.0,77,-99.99,,,-99.99,MetarLogicWeatherSta,2013-07-16 13:43:00,
2013-07-16 09:50:00,81.9,74.0,30.30,South,180,0.0,-999.0,76,-99.99,,,-99.99,MetarLogicWeatherSta,2013-07-16 13:50:00,
2013-07-16 09:55:00,82.5,74.1,30.30,ENE,67,1.0,-999.0,75,-99.99,,,-99.99,MetarLogicWeatherSta,2013-07-16 13:55:00,
2013-07-16 10:00:00,82.7,73.5,30.30,South,180,0.0,-999.0,73,-99.99,,,-99.99,MetarLogicWeatherSta,2013-07-16 14:00:00,
2013-07-16 10:05:00,82.8,73.8,30.30,South,180,0.0,-999.0,73,-99.99,,,-99.99,MetarLogicWeatherSta,2013-07-16 14:05:00,
2013-07-16 10:10:00,83.2,74.2,30.30,South,180,0.0,-999.0,73,-99.99,,,-99.99,MetarLogicWeatherSta,2013-07-16 14:10:00,
2013-07-16 10:15:00,83.4,73.6,30.30,South,180,0.0,-999.0,71,-99.99,,,-99.99,MetarLogicWeatherSta,2013-07-16 14:15:00,
2013-07-16 10:20:00,83.2,72.8,30.30,West,270,1.0,-999.0,70,-99.99,,,-99.99,MetarLogicWeatherSta,2013-07-16 14:20:00,
2013-07-16 10:25:00,83.2,72.0,30.30,South,180,0.0,-999.0,68,-99.99,,,-99.99,MetarLogicWeatherSta,2013-07-16 14:25:00,
2013-07-16 10:30:00,83.4,71.6,30.30,South,180,1.0,-999.0,67,-99.99,,,-99.99,MetarLogicWeatherSta,2013-07-16 14:30:00,
2013-07-16 10:35:00,83.3,71.7,30.30,SSE,157,0.0,-999.0,67,-99.99,,,-99.99,MetarLogicWeatherSta,2013-07-16 14:35:00,
2013-07-16 10:40:00,83.8,72.3,30.30,South,180,0.0,-999.0,67,-99.99,,,-99.99,MetarLogicWeatherSta,2013-07-16 14:40:00,
2013-07-16 10:45:00,84.2,73.2,30.30,South,180,0.0,-999.0,69,-99.99,,,-99.99,MetarLogicWeatherSta,2013-07-16 14:45:00,
2013-07-16 10:50:00,84.3,72.9,30.30,SSE,157,0.0,-999.0,68,-99.99,,,-99.99,MetarLogicWeatherSta,2013-07-16 14:50:00,
2013-07-16 10:55:00,84.7,72.5,30.30,South,180,0.0,-999.0,66,-99.99,,,-99.99,MetarLogicWeatherSta,2013-07-16 14:55:00,
2013-07-16 11:03:00,84.5,72.3,30.29,SSE,157,0.0,-999.0,66,-99.99,,,-99.99,MetarLogicWeatherSta,2013-07-16 15:03:00,
2013-07-16 11:08:00,84.8,71.9,30.29,South,180,0.0,-999.0,64,-99.99,,,-99.99,MetarLogicWeatherSta,2013-07-16 15:08:00,
2013-07-16 11:13:00,85.4,72.5,30.29,South,180,0.0,-999.0,64,-99.99,,,-99.99,MetarLogicWeatherSta,2013-07-16 15:13:00,
2013-07-16 11:18:00,85.4,71.1,30.29,South,180,0.0,-999.0,61,-99.99,,,-99.99,MetarLogicWeatherSta,2013-07-16 15:18:00,
2013-07-16 11:23:00,85.6,71.9,30.29,South,180,0.0,-999.0,63,-99.99,,,-99.99,MetarLogicWeatherSta,2013-07-16 15:23:00,
2013-07-16 11:28:00,85.6,72.8,30.29,SE,135,0.0,-999.0,64,-99.99,,,-99.99,MetarLogicWeatherSta,2013-07-16 15:28:00,
2013-07-16 11:33:00,85.7,72.4,30.29,South,180,0.0,-999.0,64,-99.99,,,-99.99,MetarLogicWeatherSta,2013-07-16 15:33:00,
2013-07-16 11:38:00,85.6,72.3,30.29,SSE,157,0.0,-999.0,64,-99.99,,,-99.99,MetarLogicWeatherSta,2013-07-16 15:38:00,
2013-07-16 11:43:00,85.4,72.4,30.29,South,180,0.0,-999.0,64,-99.99,,,-99.99,MetarLogicWeatherSta,2013-07-16 15:43:00,
2013-07-16 11:48:00,85.2,71.9,30.29,South,180,0.0,-999.0,64,-99.99,,,-99.99,MetarLogicWeatherSta,2013-07-16 15:48:00,
2013-07-16 11:55:00,85.3,72.5,30.29,SSW,198,0.3,1.0,65,-99.99,,,-99.99,MetarLogicWeatherSta,2013-07-16 15:55:00,
2013-07-16 12:00:00,85.7,72.6,30.29,SSW,195,0.0,1.0,64,-99.99,,,-99.99,MetarLogicWeatherSta,2013-07-16 16:00:00,
2013-07-16 12:05:00,85.9,73.1,30.29,SSE,157,0.0,-999.0,65,-99.99,,,-99.99,MetarLogicWeatherSta,2013-07-16 16:05:00,
2013-07-16 12:10:00,85.9,72.7,30.29,South,180,1.0,-999.0,64,-99.99,,,-99.99,MetarLogicWeatherSta,2013-07-16 16:10:00,
2013-07-16 12:15:00,85.9,72.9,30.28,SSW,202,1.0,-999.0,64,-99.99,,,-99.99,MetarLogicWeatherSta,2013-07-16 16:15:00,
2013-07-16 12:20:00,86.3,73.4,30.28,South,180,0.0,-999.0,64,-99.99,,,-99.99,MetarLogicWeatherSta,2013-07-16 16:20:00,
2013-07-16 12:25:00,86.8,72.2,30.28,SE,135,0.0,-999.0,61,-99.99,,,-99.99,MetarLogicWeatherSta,2013-07-16 16:25:00,
2013-07-16 12:30:00,87.2,72.8,30.28,South,180,0.0,-999.0,61,-99.99,,,-99.99,MetarLogicWeatherSta,2013-07-16 16:30:00,
2013-07-16 12:35:00,87.2,74.4,30.28,South,180,0.0,-999.0,65,-99.99,,,-99.99,MetarLogicWeatherSta,2013-07-16 16:35:00,
2013-07-16 12:40:00,87.5,73.8,30.28,SSE,157,0.0,-999.0,63,-99.99,,,-99.99,MetarLogicWeatherSta,2013-07-16 16:40:00,
2013-07-16 12:45:00,87.5,73.2,30.28,SSE,157,0.0,-999.0,62,-99.99,,,-99.99,MetarLogicWeatherSta,2013-07-16 16:45:00,
2013-07-16 12:50:00,88.1,73.8,30.28,South,180,0.0,-999.0,62,-99.99,,,-99.99,MetarLogicWeatherSta,2013-07-16 16:50:00,
2013-07-16 12:57:00,88.0,72.9,30.28,South,180,0.0,-999.0,60,-99.99,,,-99.99,MetarLogicWeatherSta,2013-07-16 16:57:00,
2013-07-16 13:02:00,87.7,73.0,30.28,South,180,0.0,-999.0,61,-99.99,,,-99.99,MetarLogicWeatherSta,2013-07-16 17:02:00,
2013-07-16 13:07:00,88.1,74.7,30.28,South,180,0.0,-999.0,63,-99.99,,,-99.99,MetarLogicWeatherSta,2013-07-16 17:07:00,
2013-07-16 13:12:00,87.9,73.1,30.28,South,180,0.0,-999.0,61,-99.99,,,-99.99,MetarLogicWeatherSta,2013-07-16 17:12:00,
2013-07-16 13:17:00,87.0,73.6,30.27,SSW,202,0.0,-999.0,63,-99.99,,,-99.99,MetarLogicWeatherSta,2013-07-16 17:17:00,
2013-07-16 13:22:00,87.1,73.2,30.26,South,180,0.0,-999.0,62,-99.99,,,-99.99,MetarLogicWeatherSta,2013-07-16 17:22:00,
2013-07-16 13:27:00,87.6,72.9,30.27,South,180,0.0,-999.0,61,-99.99,,,-99.99,MetarLogicWeatherSta,2013-07-16 17:27:00,
2013-07-16 13:32:00,88.0,71.9,30.26,SSW,202,1.0,-999.0,58,-99.99,,,-99.99,MetarLogicWeatherSta,2013-07-16 17:32:00,
2013-07-16 13:37:00,88.0,71.8,30.26,South,180,0.0,-999.0,58,-99.99,,,-99.99,MetarLogicWeatherSta,2013-07-16 17:37:00,
2013-07-16 13:42:00,87.9,72.1,30.26,SSE,157,0.0,-999.0,59,-99.99,,,-99.99,MetarLogicWeatherSta,2013-07-16 17:42:00,
2013-07-16 13:47:00,88.0,71.8,30.26,South,180,0.0,-999.0,58,-99.99,,,-99.99,MetarLogicWeatherSta,2013-07-16 17:47:00,
2013-07-16 13:52:00,88.0,72.6,30.26,South,180,1.0,-999.0,59,-99.99,,,-99.99,MetarLogicWeatherSta,2013-07-16 17:52:00,
2013-07-16 13:57:00,87.5,71.7,30.26,SSE,157,0.0,-999.0,59,-99.99,,,-99.99,MetarLogicWeatherSta,2013-07-16 17:57:00,
2013-07-16 14:02:00,87.5,72.2,30.26,South,180,1.0,-999.0,59,-99.99,,,-99.99,MetarLogicWeatherSta,2013-07-16 18:02:00,
2013-07-16 14:07:00,87.4,71.8,30.26,South,180,0.0,-999.0,59,-99.99,,,-99.99,MetarLogicWeatherSta,2013-07-16 18:07:00,
2013-07-16 14:12:00,87.2,72.0,30.26,SSW,205,0.5,4.0,60,-99.99,,,-99.99,MetarLogicWeatherSta,2013-07-16 18:12:00,
2013-07-16 14:17:00,87.2,71.7,30.26,South,186,0.0,1.0,59,-99.99,,,-99.99,MetarLogicWeatherSta,2013-07-16 18:17:00,
2013-07-16 14:22:00,87.5,71.7,30.26,SSW,202,1.0,-999.0,59,-99.99,,,-99.99,MetarLogicWeatherSta,2013-07-16 18:22:00,
2013-07-16 14:27:00,86.4,71.1,30.26,South,180,0.0,-999.0,59,-99.99,,,-99.99,MetarLogicWeatherSta,2013-07-16 18:27:00,
2013-07-16 14:32:00,85.7,70.7,30.26,SSW,202,1.0,-999.0,60,-99.99,,,-99.99,MetarLogicWeatherSta,2013-07-16 18:32:00,
2013-07-16 14:39:00,85.9,70.7,30.25,SSW,208,0.4,3.0,59,-99.99,,,-99.99,MetarLogicWeatherSta,2013-07-16 18:39:00,
2013-07-16 14:44:00,85.8,71.1,30.25,South,180,1.0,-999.0,61,-99.99,,,-99.99,MetarLogicWeatherSta,2013-07-16 18:44:00,
2013-07-16 14:49:00,86.1,71.1,30.25,South,180,1.0,-999.0,60,-99.99,,,-99.99,MetarLogicWeatherSta,2013-07-16 18:49:00,
2013-07-16 14:54:00,86.6,70.9,30.25,South,180,0.0,-999.0,58,-99.99,,,-99.99,MetarLogicWeatherSta,2013-07-16 18:54:00,
2013-07-16 14:59:00,87.1,70.2,30.25,SSW,202,1.0,-999.0,56,-99.99,,,-99.99,MetarLogicWeatherSta,2013-07-16 18:59:00,
2013-07-16 15:04:00,87.2,70.3,30.25,SW,225,3.0,-999.0,56,-99.99,,,-99.99,MetarLogicWeatherSta,2013-07-16 19:04:00,
2013-07-16 15:09:00,87.5,69.9,30.24,South,180,3.0,-999.0,55,-99.99,,,-99.99,MetarLogicWeatherSta,2013-07-16 19:09:00,
2013-07-16 15:14:00,87.9,70.4,30.24,South,180,1.0,-999.0,55,-99.99,,,-99.99,MetarLogicWeatherSta,2013-07-16 19:14:00,
2013-07-16 15:19:00,87.9,71.4,30.24,SW,225,1.0,-999.0,57,-99.99,,,-99.99,MetarLogicWeatherSta,2013-07-16 19:19:00,
2013-07-16 15:24:00,87.9,70.8,30.24,South,180,0.0,-999.0,56,-99.99,,,-99.99,MetarLogicWeatherSta,2013-07-16 19:24:00,
2013-07-16 15:29:00,87.9,70.9,30.24,SSE,157,0.0,-999.0,56,-99.99,,,-99.99,MetarLogicWeatherSta,2013-07-16 19:29:00,
2013-07-16 15:34:00,87.7,70.5,30.24,South,180,0.0,-999.0,56,-99.99,,,-99.99,MetarLogicWeatherSta,2013-07-16 19:34:00,
2013-07-16 15:39:00,86.9,70.5,30.24,South,180,0.0,-999.0,57,-99.99,,,-99.99,MetarLogicWeatherSta,2013-07-16 19:39:00,
2013-07-16 15:44:00,86.5,70.1,30.24,South,180,0.0,-999.0,57,-99.99,,,-99.99,MetarLogicWeatherSta,2013-07-16 19:44:00,
2013-07-16 15:49:00,86.6,70.0,30.24,South,180,1.0,-999.0,57,-99.99,,,-99.99,MetarLogicWeatherSta,2013-07-16 19:49:00,
2013-07-16 15:54:00,86.3,70.6,30.24,South,180,1.0,-999.0,58,-99.99,,,-99.99,MetarLogicWeatherSta,2013-07-16 19:54:00,
2013-07-16 15:59:00,85.8,70.5,30.24,South,180,0.0,-999.0,59,-99.99,,,-99.99,MetarLogicWeatherSta,2013-07-16 19:59:00,
2013-07-16 16:04:00,85.4,70.7,30.24,South,180,1.0,-999.0,60,-99.99,,,-99.99,MetarLogicWeatherSta,2013-07-16 20:04:00,
2013-07-16 16:09:00,85.3,70.7,30.24,South,180,0.0,-999.0,61,-99.99,,,-99.99,MetarLogicWeatherSta,2013-07-16 20:09:00,
2013-07-16 16:14:00,85.3,70.4,30.24,SSW,203,1.0,4.0,60,-99.99,,,-99.99,MetarLogicWeatherSta,2013-07-16 20:14:00,
2013-07-16 16:19:00,84.9,70.8,30.24,SSW,204,0.4,1.0,62,-99.99,,,-99.99,MetarLogicWeatherSta,2013-07-16 20:19:00,
2013-07-16 16:24:00,84.5,70.6,30.24,SSW,209,0.5,3.0,62,-99.99,,,-99.99,MetarLogicWeatherSta,2013-07-16 20:24:00,
2013-07-16 16:29:00,84.2,70.4,30.24,SSW,202,1.0,-999.0,62,-99.99,,,-99.99,MetarLogicWeatherSta,2013-07-16 20:29:00,
2013-07-16 16:34:00,84.4,69.8,30.24,SW,225,1.0,-999.0,61,-99.99,,,-99.99,MetarLogicWeatherSta,2013-07-16 20:34:00,
2013-07-16 16:39:00,84.5,69.9,30.24,SSW,202,3.0,-999.0,61,-99.99,,,-99.99,MetarLogicWeatherSta,2013-07-16 20:39:00,
2013-07-16 16:44:00,84.0,69.4,30.23,West,270,3.0,-999.0,61,-99.99,,,-99.99,MetarLogicWeatherSta,2013-07-16 20:44:00,
2013-07-16 16:49:00,83.9,69.2,30.24,South,180,0.0,-999.0,60,-99.99,,,-99.99,MetarLogicWeatherSta,2013-07-16 20:49:00,
2013-07-16 16:54:00,83.8,69.8,30.24,South,180,0.0,-999.0,62,-99.99,,,-99.99,MetarLogicWeatherSta,2013-07-16 20:54:00,
2013-07-16 16:59:00,83.7,69.7,30.23,SSW,203,0.3,3.0,62,-99.99,,,-99.99,MetarLogicWeatherSta,2013-07-16 20:59:00,
2013-07-16 17:04:00,83.6,68.7,30.24,South,180,0.0,-999.0,60,-99.99,,,-99.99,MetarLogicWeatherSta,2013-07-16 21:04:00,
2013-07-16 17:09:00,83.8,68.8,30.24,South,180,0.0,-999.0,60,-99.99,,,-99.99,MetarLogicWeatherSta,2013-07-16 21:09:00,
2013-07-16 17:14:00,83.8,68.3,30.24,South,180,0.0,-999.0,59,-99.99,,,-99.99,MetarLogicWeatherSta,2013-07-16 21:14:00,
2013-07-16 17:19:00,83.8,69.2,30.23,South,180,1.0,-999.0,60,-99.99,,,-99.99,MetarLogicWeatherSta,2013-07-16 21:19:00,
2013-07-16 17:24:00,83.5,68.8,30.23,South,180,0.0,-999.0,60,-99.99,,,-99.99,MetarLogicWeatherSta,2013-07-16 21:24:00,
2013-07-16 17:30:00,83.6,68.6,30.24,South,180,0.0,-999.0,60,-99.99,,,-99.99,MetarLogicWeatherSta,2013-07-16 21:30:00,
2013-07-16 17:35:00,83.4,68.5,30.24,South,180,1.0,-999.0,60,-99.99,,,-99.99,MetarLogicWeatherSta,2013-07-16 21:35:00,
2013-07-16 17:58:00,83.5,67.5,30.23,South,180,0.0,-999.0,58,-99.99,,,-99.99,MetarLogicWeatherSta,2013-07-16 21:58:00,
2013-07-16 18:03:00,83.1,67.1,30.23,South,180,0.0,-999.0,58,-99.99,,,-99.99,MetarLogicWeatherSta,2013-07-16 22:03:00,
2013-07-16 18:09:00,82.8,66.8,30.22,South,180,0.0,-999.0,57,-99.99,,,-99.99,MetarLogicWeatherSta,2013-07-16 22:09:00,
2013-07-16 18:14:00,82.5,65.9,30.22,South,180,0.0,-999.0,56,-99.99,,,-99.99,MetarLogicWeatherSta,2013-07-16 22:14:00,
2013-07-16 18:19:00,82.6,67.4,30.22,South,180,0.0,-999.0,59,-99.99,,,-99.99,MetarLogicWeatherSta,2013-07-16 22:19:00,
2013-07-16 18:24:00,82.6,67.5,30.22,South,180,0.0,-999.0,59,-99.99,,,-99.99,MetarLogicWeatherSta,2013-07-16 22:24:00,
2013-07-16 18:31:00,82.6,67.7,30.22,South,180,0.0,-999.0,60,-99.99,,,-99.99,MetarLogicWeatherSta,2013-07-16 22:31:00,
2013-07-16 18:36:00,82.1,69.0,30.22,South,180,0.0,-999.0,64,-99.99,,,-99.99,MetarLogicWeatherSta,2013-07-16 22:36:00,
2013-07-16 18:41:00,81.8,68.0,30.22,South,180,0.0,-999.0,62,-99.99,,,-99.99,MetarLogicWeatherSta,2013-07-16 22:41:00,
2013-07-16 18:46:00,81.7,68.5,30.22,South,180,0.0,-999.0,63,-99.99,,,-99.99,MetarLogicWeatherSta,2013-07-16 22:46:00,
2013-07-16 18:51:00,81.4,69.0,30.22,South,180,0.0,-999.0,65,-99.99,,,-99.99,MetarLogicWeatherSta,2013-07-16 22:51:00,
2013-07-16 18:56:00,81.1,68.4,30.22,SSE,157,0.0,-999.0,64,-99.99,,,-99.99,MetarLogicWeatherSta,2013-07-16 22:56:00,
2013-07-16 19:01:00,80.9,67.9,30.22,South,180,0.0,-999.0,64,-99.99,,,-99.99,MetarLogicWeatherSta,2013-07-16 23:01:00,
2013-07-16 19:06:00,80.7,68.4,30.22,SSE,157,0.0,-999.0,65,-99.99,,,-99.99,MetarLogicWeatherSta,2013-07-16 23:06:00,
2013-07-16 19:11:00,80.3,68.3,30.22,SSE,157,0.0,-999.0,66,-99.99,,,-99.99,MetarLogicWeatherSta,2013-07-16 23:11:00,
2013-07-16 19:16:00,80.1,68.7,30.22,South,180,0.0,-999.0,67,-99.99,,,-99.99,MetarLogicWeatherSta,2013-07-16 23:16:00,
2013-07-16 19:21:00,79.9,68.5,30.22,SSE,157,0.0,-999.0,67,-99.99,,,-99.99,MetarLogicWeatherSta,2013-07-16 23:21:00,
2013-07-16 19:27:00,79.5,68.4,30.22,South,180,0.0,-999.0,68,-99.99,,,-99.99,MetarLogicWeatherSta,2013-07-16 23:27:00,
2013-07-16 19:32:00,79.3,69.0,30.22,South,180,0.0,-999.0,70,-99.99,,,-99.99,MetarLogicWeatherSta,2013-07-16 23:32:00,
2013-07-16 19:37:00,79.1,68.9,30.22,SSE,157,0.0,-999.0,70,-99.99,,,-99.99,MetarLogicWeatherSta,2013-07-16 23:37:00,
2013-07-16 19:42:00,78.8,68.1,30.22,SSE,157,0.0,-999.0,69,-99.99,,,-99.99,MetarLogicWeatherSta,2013-07-16 23:42:00,
2013-07-16 19:47:00,79.0,68.4,30.22,SSE,157,0.0,-999.0,69,-99.99,,,-99.99,MetarLogicWeatherSta,2013-07-16 23:47:00,
2013-07-16 19:52:00,78.8,68.6,30.22,South,180,0.0,-999.0,70,-99.99,,,-99.99,MetarLogicWeatherSta,2013-07-16 23:52:00,
2013-07-16 19:57:00,78.4,68.6,30.22,South,180,0.0,-999.0,71,-99.99,,,-99.99,MetarLogicWeatherSta,2013-07-16 23:57:00,
2013-07-16 20:02:00,77.8,68.4,30.22,South,180,0.0,-999.0,72,-99.99,,,-99.99,MetarLogicWeatherSta,2013-07-17 00:02:00,
2013-07-16 20:07:00,77.3,68.1,30.23,SSE,157,0.0,-999.0,72,-99.99,,,-99.99,MetarLogicWeatherSta,2013-07-17 00:07:00,
2013-07-16 20:12:00,77.0,68.4,30.23,SSE,157,0.0,-999.0,74,-99.99,,,-99.99,MetarLogicWeatherSta,2013-07-17 00:12:00,
2013-07-16 20:17:00,76.6,68.1,30.23,SSE,157,0.0,-999.0,74,-99.99,,,-99.99,MetarLogicWeatherSta,2013-07-17 00:17:00,
2013-07-16 20:22:00,76.2,68.0,30.23,SSE,157,0.0,-999.0,75,-99.99,,,-99.99,MetarLogicWeatherSta,2013-07-17 00:22:00,
2013-07-16 20:27:00,75.9,67.9,30.23,SSE,157,0.0,-999.0,76,-99.99,,,-99.99,MetarLogicWeatherSta,2013-07-17 00:27:00,
2013-07-16 20:33:00,75.8,68.2,30.23,SSE,157,0.0,-999.0,76,-99.99,,,-99.99,MetarLogicWeatherSta,2013-07-17 00:33:00,
2013-07-16 20:38:00,75.2,68.1,30.23,South,180,0.0,-999.0,78,-99.99,,,-99.99,MetarLogicWeatherSta,2013-07-17 00:38:00,
2013-07-16 20:43:00,74.6,67.8,30.23,South,180,0.0,-999.0,79,-99.99,,,-99.99,MetarLogicWeatherSta,2013-07-17 00:43:00,
2013-07-16 20:48:00,73.9,67.2,30.23,SSE,157,0.0,-999.0,79,-99.99,,,-99.99,MetarLogicWeatherSta,2013-07-17 00:48:00,
2013-07-16 20:53:00,73.6,67.1,30.23,SSE,157,0.0,-999.0,80,-99.99,,,-99.99,MetarLogicWeatherSta,2013-07-17 00:53:00,
2013-07-16 20:58:00,73.4,66.8,30.23,SSE,157,0.0,-999.0,79,-99.99,,,-99.99,MetarLogicWeatherSta,2013-07-17 00:58:00,
2013-07-16 21:03:00,72.9,66.6,30.24,SSE,157,0.0,-999.0,80,-99.99,,,-99.99,MetarLogicWeatherSta,2013-07-17 01:03:00,
2013-07-16 21:08:00,72.6,66.2,30.23,SSE,157,0.0,-999.0,80,-99.99,,,-99.99,MetarLogicWeatherSta,2013-07-17 01:08:00,
2013-07-16 21:13:00,72.2,66.1,30.24,SSE,157,0.0,-999.0,80,-99.99,,,-99.99,MetarLogicWeatherSta,2013-07-17 01:13:00,
2013-07-16 21:18:00,71.9,66.0,30.24,SSE,157,0.0,-999.0,81,-99.99,,,-99.99,MetarLogicWeatherSta,2013-07-17 01:18:00,
2013-07-16 21:23:00,71.7,65.8,30.24,SSE,157,0.0,-999.0,81,-99.99,,,-99.99,MetarLogicWeatherSta,2013-07-17 01:23:00,
2013-07-16 21:28:00,71.5,66.0,30.24,SSE,157,0.0,-999.0,82,-99.99,,,-99.99,MetarLogicWeatherSta,2013-07-17 01:28:00,
2013-07-16 21:33:00,71.4,65.8,30.24,SSE,157,0.0,-999.0,82,-99.99,,,-99.99,MetarLogicWeatherSta,2013-07-17 01:33:00,
2013-07-16 21:38:00,71.0,65.3,30.24,SSE,157,0.0,-999.0,82,-99.99,,,-99.99,MetarLogicWeatherSta,2013-07-17 01:38:00,
2013-07-16 21:43:00,70.5,65.1,30.24,SSE,157,0.0,-999.0,82,-99.99,,,-99.99,MetarLogicWeatherSta,2013-07-17 01:43:00,
2013-07-16 21:48:00,70.3,65.0,30.24,SSE,157,0.0,-999.0,83,-99.99,,,-99.99,MetarLogicWeatherSta,2013-07-17 01:48:00,
2013-07-16 21:53:00,70.1,64.8,30.24,SSE,157,0.0,-999.0,83,-99.99,,,-99.99,MetarLogicWeatherSta,2013-07-17 01:53:00,
2013-07-16 21:58:00,69.9,64.7,30.24,SSE,157,0.0,-999.0,83,-99.99,,,-99.99,MetarLogicWeatherSta,2013-07-17 01:58:00,
2013-07-16 22:03:00,69.7,64.7,30.24,SSE,157,0.0,-999.0,83,-99.99,,,-99.99,MetarLogicWeatherSta,2013-07-17 02:03:00,
2013-07-16 22:08:00,69.6,64.7,30.24,SSE,157,0.0,-999.0,84,-99.99,,,-99.99,MetarLogicWeatherSta,2013-07-17 02:08:00,
2013-07-16 22:13:00,69.6,64.8,30.24,SSE,157,0.0,-999.0,84,-99.99,,,-99.99,MetarLogicWeatherSta,2013-07-17 02:13:00,
2013-07-16 22:18:00,69.5,64.8,30.24,SSE,157,0.0,-999.0,84,-99.99,,,-99.99,MetarLogicWeatherSta,2013-07-17 02:18:00,
2013-07-16 22:23:00,69.4,65.0,30.24,SSE,157,0.0,-999.0,85,-99.99,,,-99.99,MetarLogicWeatherSta,2013-07-17 02:23:00,
2013-07-16 22:28:00,69.1,64.7,30.24,SSE,157,0.0,-999.0,85,-99.99,,,-99.99,MetarLogicWeatherSta,2013-07-17 02:28:00,
2013-07-16 22:33:00,69.1,64.8,30.24,SSE,157,0.0,-999.0,86,-99.99,,,-99.99,MetarLogicWeatherSta,2013-07-17 02:33:00,
2013-07-16 22:38:00,69.0,64.7,30.24,SSE,157,0.0,-999.0,86,-99.99,,,-99.99,MetarLogicWeatherSta,2013-07-17 02:38:00,
2013-07-16 22:43:00,68.7,64.5,30.24,SSE,157,0.0,-999.0,86,-99.99,,,-99.99,MetarLogicWeatherSta,2013-07-17 02:43:00,
2013-07-16 22:48:00,68.8,64.9,30.24,SSE,157,0.0,-999.0,87,-99.99,,,-99.99,MetarLogicWeatherSta,2013-07-17 02:48:00,
2013-07-16 22:53:00,68.8,65.1,30.24,SSE,157,0.0,-999.0,87,-99.99,,,-99.99,MetarLogicWeatherSta,2013-07-17 02:53:00,
2013-07-16 22:58:00,69.0,65.2,30.24,SSE,157,0.0,-999.0,87,-99.99,,,-99.99,MetarLogicWeatherSta,2013-07-17 02:58:00,
2013-07-16 23:03:00,69.1,65.4,30.24,SSE,157,0.0,-999.0,88,-99.99,,,-99.99,MetarLogicWeatherSta,2013-07-17 03:03:00,
2013-07-16 23:08:00,69.0,65.3,30.24,SSE,157,0.0,-999.0,87,-99.99,,,-99.99,MetarLogicWeatherSta,2013-07-17 03:08:00,
2013-07-16 23:13:00,68.9,65.3,30.24,SSE,157,0.0,-999.0,88,-99.99,,,-99.99,MetarLogicWeatherSta,2013-07-17 03:13:00,
2013-07-16 23:18:00,68.7,65.2,30.24,South,180,0.0,-999.0,88,-99.99,,,-99.99,MetarLogicWeatherSta,2013-07-17 03:18:00,
2013-07-16 23:23:00,68.6,65.0,30.24,SSE,157,0.0,-999.0,88,-99.99,,,-99.99,MetarLogicWeatherSta,2013-07-17 03:23:00,
2013-07-16 23:28:00,68.4,65.2,30.24,SSE,157,0.0,-999.0,89,-99.99,,,-99.99,MetarLogicWeatherSta,2013-07-17 03:28:00,
2013-07-16 23:33:00,68.5,65.2,30.24,SSE,157,0.0,-999.0,89,-99.99,,,-99.99,MetarLogicWeatherSta,2013-07-17 03:33:00,
2013-07-16 23:38:00,68.3,65.1,30.24,SSE,157,0.0,-999.0,89,-99.99,,,-99.99,MetarLogicWeatherSta,2013-07-17 03:38:00,
2013-07-16 23:43:00,68.5,65.4,30.24,SSE,157,0.0,-999.0,89,-99.99,,,-99.99,MetarLogicWeatherSta,2013-07-17 03:43:00,
2013-07-16 23:48:00,68.6,65.3,30.24,SSE,157,0.0,-999.0,89,-99.99,,,-99.99,MetarLogicWeatherSta,2013-07-17 03:48:00,
2013-07-16 23:53:00,68.4,65.1,30.24,SSE,157,0.0,-999.0,89,-99.99,,,-99.99,MetarLogicWeatherSta,2013-07-17 03:53:00,
2013-07-16 23:58:00,68.0,64.8,30.24,SSE,157,0.0,-999.0,89,-99.99,,,-99.99,MetarLogicWeatherSta,2013-07-17 03:58:00,